📊 Raw Sensor Data
Showing records 47126 to 47150 of 85,080 total
| ID | Distance (ft) | Battery V | Battery A | Int Temp (°F) | Int Humid (%) | Ext Temp (°F) | Solar V | RSSI | SNR | Time Stamp |
|---|---|---|---|---|---|---|---|---|---|---|
| 37967 | -- | 4.03 | 81 | 55 | 39 | 56 | 4.50 | -80 | 7 | 04/16/2025 08:00 AM |
| 37966 | -- | 3.95 | 62 | 53 | 39 | 54 | 4.50 | -78 | 7 | 04/16/2025 07:46 AM |
| 37965 | -- | 3.88 | 39 | 52 | 40 | 53 | 4.50 | -79 | 7 | 04/16/2025 07:31 AM |
| 37964 | -- | 3.83 | 18 | 51 | 40 | 52 | 4.50 | -81 | 8 | 04/16/2025 07:15 AM |
| 37963 | 15.2 | 3.85 | 6 | 50 | 40 | 51 | 4.50 | -80 | 7 | 04/16/2025 07:00 AM |
| 37962 | -- | 3.83 | -5 | 49 | 41 | 50 | 4.50 | -81 | 8 | 04/16/2025 06:46 AM |
| 37961 | -- | 3.78 | -9 | 49 | 41 | 50 | 1.60 | -79 | 8 | 04/16/2025 06:31 AM |
| 37960 | 15.2 | 3.78 | -5 | 49 | 41 | 50 | 1.40 | -78 | 7 | 04/16/2025 06:15 AM |
| 37959 | 15.2 | 3.83 | -5 | 49 | 41 | 50 | 0.00 | -80 | 7 | 04/16/2025 06:00 AM |
| 37958 | 15.2 | 3.78 | -5 | 50 | 41 | 51 | 0.00 | -81 | 8 | 04/16/2025 05:45 AM |
| 37957 | 15.2 | 3.78 | -5 | 50 | 41 | 51 | 0.00 | -81 | 8 | 04/16/2025 05:30 AM |
| 37956 | 15.2 | 3.83 | -5 | 50 | 41 | 51 | 0.00 | -80 | 7 | 04/16/2025 05:15 AM |
| 37955 | 15.1 | 3.78 | -5 | 50 | 41 | 51 | 0.00 | -87 | 7 | 04/16/2025 05:00 AM |
| 37954 | 15.2 | 3.83 | -5 | 50 | 41 | 51 | 0.10 | -77 | 8 | 04/16/2025 04:45 AM |
| 37953 | 15.2 | 3.84 | -8 | 50 | 41 | 51 | 0.00 | -79 | 8 | 04/16/2025 04:30 AM |
| 37952 | 15.2 | 3.79 | -5 | 50 | 41 | 51 | 0.00 | -82 | 8 | 04/16/2025 04:15 AM |
| 37951 | 15.2 | 3.84 | -5 | 50 | 41 | 51 | 0.00 | -79 | 8 | 04/16/2025 04:00 AM |
| 37950 | 15.2 | 3.79 | -5 | 50 | 41 | 51 | 0.10 | -80 | 8 | 04/16/2025 03:45 AM |
| 37949 | 15.2 | 3.79 | -5 | 50 | 41 | 51 | 0.00 | -81 | 9 | 04/16/2025 03:30 AM |
| 37948 | 15.2 | 3.84 | -5 | 50 | 41 | 51 | 0.10 | -78 | 8 | 04/16/2025 03:15 AM |
| 37947 | 15.2 | 3.79 | -5 | 51 | 41 | 51 | 0.00 | -81 | 8 | 04/16/2025 03:00 AM |
| 37946 | -- | 3.84 | -5 | 51 | 41 | 52 | 0.00 | -78 | 7 | 04/16/2025 02:46 AM |
| 37945 | -- | 3.79 | -5 | 51 | 41 | 52 | 0.00 | -77 | 8 | 04/16/2025 02:31 AM |
| 37944 | -- | 3.79 | -5 | 52 | 41 | 52 | 0.00 | -79 | 7 | 04/16/2025 02:15 AM |
| 37943 | 15.1 | 3.84 | -5 | 52 | 41 | 52 | 0.00 | -81 | 7 | 04/16/2025 02:00 AM |